Flag for Malaysia Weather past 2 weeks in Kuala Lumpur, Malaysia

Now
79 °F

Passing clouds.


Feels Like: 83 °F
Forecast: 74 / 89 °F
Wind: No wind

Location: Sultan Abdul Aziz Shah-Subang

Current Time: Aug 23, 2014 at 2:01:46 AM

Latest Report: Aug 23, 2014 at 1:00 AM


Visibility: 4 mi

Pressure: 29.83 "Hg

Humidity: 94%

Dew point: 77 °F

Location of Kuala LumpurLocation

Historic Weather in Kuala Lumpur — Graph

°F

Kuala Lumpur temperature yesterday

Maximum temperature yesterday: 93 °F (at 2:00 PM)
Minimum temperature yesterday: 79 °F (at 5:00 AM)
Average temperature yesterday: 84 °F

Past Weeks' High & Low Weather Summary

 TemperatureHumidityPressure
High95 °F (Aug 9, 2:00 PM)100% (Aug 17, 2:00 AM)29.95 "Hg (Aug 17, 2:00 AM)
Low73 °F (Aug 16, 10:00 AM)44% (Aug 9, 1:00 PM)29.71 "Hg (Aug 22, 4:00 PM)
Average82 °F78%29.85 "Hg
* Reported Midnight between Aug 7 and Aug 8 — Midnight between Aug 22 and Aug 23, Kuala Lumpur, Weather by CustomWeather, © 2014

Note: Actual official high and low records may vary slightly from our data, if they occured in-between our weather recording intervals... More about our weather records

Advertising

Kuala Lumpur weather history for previous 24 hours

 ConditionsComfort  
Time TempWeatherWind HumidityBarometerVisibility
12:00 AM
Aug 23
79 °FPassing clouds.2 mph94%29.83 "Hg4 mi
11:00 PM
Aug 22
79 °FPartly cloudy.1 mph94%29.83 "Hg4 mi
10:00 PM81 °FThunderstorms. Mostly cloudy.3 mph89%29.80 "Hg4 mi
9:00 PM79 °FThunderstorms. Mostly cloudy.3 mph94%29.80 "Hg4 mi
8:00 PM84 °FThunderstorms. Mostly cloudy.10 mph74%29.77 "Hg5 mi
7:00 PM86 °FBroken clouds.7 mph70%29.71 "Hg6 mi
6:00 PM86 °FPartly sunny.6 mph79%29.71 "Hg5 mi
5:00 PM82 °FBroken clouds.3 mph84%29.71 "Hg4 mi
4:00 PM84 °FSprinkles. Broken clouds.5 mph79%29.71 "HgN/A
3:00 PM93 °FBroken clouds.8 mph56%29.74 "HgN/A
2:00 PM93 °FBroken clouds.6 mph49%29.77 "HgN/A
1:00 PM91 °FBroken clouds.7 mph56%29.80 "HgN/A
12:00 PM91 °FPartly sunny.7 mph56%29.83 "HgN/A
11:00 AM88 °FPartly sunny.6 mph55%29.83 "HgN/A
10:00 AM86 °FBroken clouds.3 mph70%29.86 "HgN/A
9:00 AM82 °FBroken clouds.3 mph79%29.83 "Hg5 mi
8:00 AM81 °FBroken clouds.1 mph84%29.83 "HgN/A
7:00 AM79 °FPartly cloudy.2 mph84%29.80 "Hg6 mi
6:00 AM81 °FPartly cloudy.3 mph84%29.77 "HgN/A
5:00 AM79 °FPassing clouds.2 mph89%29.77 "HgN/A
4:00 AM81 °FPassing clouds.1 mph84%29.80 "HgN/A
3:00 AM81 °FPassing clouds.1 mph84%29.80 "HgN/A
2:00 AM82 °FPartly cloudy.1 mph74%29.83 "HgN/A
Weather by CustomWeather, © 2014

See weather overviewHow to use our weather pages